Time[GMT],air_temperature[C](-3m),wind_speed[m/s](-4m),wind_gust[m/s](-4m),visibility[m](-3m),barometric_pressure[millibars](-3m),wind_2_direction[degrees_true](-4m),wind_2_gust[m/s](-4m),wind_2_gust_1s[m/s](-4m),wind_2_min[m/s](-4m),wind_2_percent_good[1](-4m),wind_2_speed[m/s](-4m),wind_direction[degrees_true](-4m),wind_gust_1s[m/s](-4m),wind_min[m/s](-4m)
2021-07-21 02:00,17.1,,, 586,1011.74,223.80,5.37,6.23,3.00,1.00,4.62,,,
2021-07-21 03:00,16.5,4.6,5.7,1156,1011.99,,,,,0.99,,228.40,6.47,2.94
2021-07-21 04:00,16.5,,, 743,1011.62,231.60,5.10,5.64,2.55,1.00,4.30,,,
2021-07-21 05:00,16.7,,,1228,1011.13,214.10,4.98,5.36,2.38,1.00,4.01,,,
2021-07-21 06:00,16.5,,,1739,1011.38,206.40,5.44,5.94,1.68,1.00,3.49,,,
2021-07-21 07:00,16.7,,, 625,1011.13,210.80,5.15,6.18,1.81,1.00,4.15,,,
2021-07-21 08:00,16.8,3.4,4.1,1399,1011.13,,,,,0.73,,205.10,4.51,2.16
2021-07-21 09:00,17.3,,, 399,1011.62,218.70,4.58,5.57,1.85,1.00,3.64,,,
2021-07-21 10:00,17.6,,, 240,1011.74,214.50,3.89,4.53,1.39,1.00,2.99,,,
2021-07-21 11:00,17.5,3.6,4.7,1281,1011.01,,,,,0.13,,174.30,4.70,2.55
2021-07-21 12:00,18.0,5.2,6.7, 935,1010.89,,,,,0.76,,169.80,6.47,3.92
2021-07-21 13:00,18.5,,, 471,1011.01,190.60,5.93,6.65,1.96,1.00,4.63,,,
2021-07-21 14:00,18.7,3.7,4.7, 375,1011.25,,,,,0.23,,176.00,5.10,2.74
2021-07-21 15:00,18.5,,,1242,1011.25,194.70,3.34,4.58,1.34,1.00,2.90,,,
2021-07-21 16:00,19.1,,,2995,1011.62,176.80,1.73,2.14,0.04,1.00,1.00,,,
2021-07-21 17:00,20.0,,,2995,1011.38,173.70,2.08,2.59,0.45,1.00,1.40,,,
2021-07-21 18:00,20.4,,,2995,1010.76,171.40,4.07,4.53,2.00,1.00,3.12,,,
2021-07-21 19:00,20.3,,,2995,1010.40,179.70,3.52,4.02,1.76,1.00,2.88,,,
2021-07-21 20:00,19.6,,, 289,1010.27,249.10,3.99,4.89,1.59,1.00,3.20,,,
2021-07-21 21:00,18.7,,, 854,1010.27,210.50,3.94,4.48,1.57,1.00,2.93,,,
2021-07-21 22:00,18.5,,, 734,1010.03,204.70,2.47,3.20,0.54,1.00,1.81,,,
2021-07-21 23:00,18.2,,, 339,1010.27,200.20,2.60,3.32,0.71,1.00,2.10,,,
2021-07-22 00:00,18.5,,,2995,1010.40,223.40,3.94,4.27,1.39,1.00,2.94,,,
2021-07-22 01:00,17.9,,,1588,1010.40,190.10,3.49,4.39,1.34,1.00,2.88,,,
2021-07-22 02:00,18.2,,,2995,1010.52,208.40,3.46,4.32,1.08,1.00,2.54,,,
2021-07-22 03:00,18.0,,, 544,1010.52,210.40,4.85,5.29,0.88,1.00,3.46,,,
2021-07-22 04:00,17.5,,, 371,1010.27,245.00,4.18,4.68,2.21,1.00,3.53,,,
2021-07-22 05:00,17.4,,,1942,1009.66,253.80,4.00,4.54,2.08,1.00,3.35,,,
2021-07-22 06:00,17.6,,,2995,1009.42,210.10,3.02,3.90,0.66,1.00,2.15,,,
2021-07-22 07:00,17.9,,,2995,1009.42,265.50,6.66,8.16,1.09,1.00,4.43,,,
2021-07-22 08:00,18.4,,,2221,1009.78,299.50,9.56,10.72,3.08,1.00,7.36,,,
2021-07-22 09:00,18.4,,,2995,1008.07,48.69,5.71,6.17,1.43,1.00,4.13,,,
2021-07-22 10:00,18.5,,,2995,1009.29,286.40,4.10,4.86,1.46,1.00,3.08,,,
2021-07-22 11:00,18.8,,,2995,1010.03,261.60,4.66,5.00,1.83,1.00,3.49,,,
2021-07-22 12:00,18.9,,,2995,1010.27,244.10,6.43,6.93,3.55,1.00,5.15,,,
2021-07-22 13:00,17.5,,,2055,1010.64,269.70,9.98,10.83,5.70,1.00,8.57,,,
2021-07-22 14:00,17.6,,,2995,1010.76,279.30,9.30,10.79,3.70,1.00,7.57,,,
2021-07-22 15:00,17.5,,,2991,1011.25,289.70,10.50,11.95,5.11,1.00,8.80,,,
2021-07-22 16:00,16.2,,,2995,1011.99,321.20,11.27,12.26,6.38,1.00,9.05,,,
2021-07-22 17:00,16.2,,,2995,1011.99,313.90,10.47,11.39,5.50,1.00,8.57,,,
2021-07-22 18:00,16.4,,,2995,1012.24,311.60,10.09,12.09,5.18,1.00,8.29,,,
2021-07-22 19:00,16.2,,,2995,1012.60,305.40,10.79,11.87,4.58,1.00,9.17,,,
2021-07-22 20:00,16.0,,,2995,1012.85,315.40,11.02,12.03,3.87,1.00,9.08,,,
2021-07-22 21:00,16.3,,,2995,1013.46,317.90,9.93,12.13,3.83,1.00,7.53,,,
2021-07-22 22:00,16.4,,,2995,1013.83,314.10,9.87,12.31,3.27,1.00,7.03,,,
2021-07-22 23:00,16.8,,,2995,1014.20,311.70,9.24,10.30,3.16,1.00,6.60,,,
2021-07-23 00:00,16.8,,,2995,1014.93,309.30,9.58,10.68,2.65,1.00,7.09,,,
2021-07-23 01:00,17.0,,,2995,1015.79,309.20,8.86,10.27,4.13,1.00,7.25,,,
2021-07-23 02:00,17.3,,,2995,1016.41,306.80,8.33,9.98,2.36,1.00,6.38,,,
2021-07-23 03:00,17.4,,,2995,1016.41,313.80,8.42,9.51,2.67,1.00,6.51,,,
2021-07-23 04:00,17.5,,,2995,1016.28,314.90,7.60,8.30,2.54,1.00,5.35,,,
2021-07-23 05:00,17.5,,,2995,1016.77,305.00,6.73,7.61,3.03,1.00,5.76,,,
2021-07-23 06:00,17.5,,,2995,1016.77,306.70,8.08,8.75,3.88,1.00,6.30,,,
2021-07-23 07:00,17.4,,,2995,1016.90,305.30,6.47,7.67,2.84,1.00,5.36,,,
2021-07-23 08:00,17.5,,,2995,1016.77,282.70,3.75,4.99,1.03,1.00,3.03,,,
2021-07-23 09:00,17.6,,,2995,1017.02,251.60,4.16,5.19,0.91,1.00,2.52,,,
2021-07-23 10:00,17.6,,,2995,1017.14,239.80,4.64,5.67,1.46,1.00,3.53,,,
2021-07-23 11:00,17.7,,,2995,1017.51,236.10,3.20,3.95,1.02,1.00,2.57,,,
2021-07-23 12:00,17.8,,,2995,1017.88,236.10,4.83,5.26,2.25,1.00,3.69,,,
2021-07-23 13:00,17.8,,,2995,1017.88,226.90,4.55,5.26,2.43,1.00,3.86,,,
2021-07-23 14:00,17.8,,,2995,1017.88,223.10,5.48,5.98,3.07,1.00,4.64,,,
2021-07-23 15:00,18.4,,,2995,1018.12,231.70,5.40,6.56,1.60,1.00,4.29,,,
2021-07-23 16:00,18.1,,,2995,1018.00,231.10,6.00,6.64,3.63,1.00,5.20,,,
2021-07-23 17:00,18.3,,,2995,1017.76,228.90,9.20,10.18,5.21,1.00,7.86,,,
2021-07-23 18:00,17.9,,,2995,1017.76,231.80,6.77,7.72,3.21,1.00,5.49,,,
2021-07-23 19:00,18.6,,,2995,1017.39,218.50,5.66,6.36,2.35,1.00,4.53,,,
2021-07-23 20:00,18.8,,,2995,1017.14,223.40,5.05,6.28,1.48,1.00,3.69,,,
2021-07-23 21:00,18.8,,,2995,1016.90,216.70,6.04,6.97,3.26,1.00,4.97,,,
2021-07-23 22:00,18.4,,,2995,1017.02,221.50,5.94,6.81,1.76,1.00,4.39,,,
2021-07-23 23:00,18.4,,,2995,1017.26,242.70,4.34,4.83,1.47,1.00,3.39,,,
2021-07-24 00:00,18.0,,,2995,1017.39,240.20,3.89,4.52,1.84,1.00,3.19,,,
2021-07-24 01:00,17.9,,,2995,1017.76,270.40,4.33,5.20,1.62,1.00,3.44,,,
2021-07-24 02:00,17.0,,, 335,1018.00,248.00,2.33,3.23,0.22,1.00,1.44,,,
2021-07-24 03:00,16.6,,,2995,1018.00,291.50,4.73,5.64,0.28,1.00,2.93,,,
2021-07-24 04:00,16.0,,,2995,1018.00,324.80,6.48,7.08,1.70,1.00,4.03,,,
2021-07-24 05:00,16.4,,,2995,1017.76,304.60,5.03,5.53,2.61,1.00,4.09,,,
2021-07-24 06:00,16.7,,,2995,1017.51,313.40,4.97,5.36,2.79,1.00,4.10,,,
2021-07-24 07:00,17.0,,,2995,1017.39,336.70,3.71,4.44,1.50,1.00,2.83,,,
2021-07-24 08:00,17.1,,,2995,1017.39,7.73,3.84,4.17,1.55,1.00,2.76,,,
2021-07-24 09:00,16.8,,,2995,1017.88,41.44,2.72,3.16,0.76,1.00,1.93,,,
2021-07-24 10:00,15.4,,, 589,1018.25,107.20,2.75,3.75,0.93,1.00,2.01,,,
2021-07-24 11:00,15.1,,,1589,1018.62,55.84,1.16,1.64,0.07,1.00,0.70,,,
2021-07-24 12:00,15.3,,,1138,1018.86,180.10,1.43,1.80,0.03,1.00,0.64,,,
2021-07-24 13:00,16.0,,,2995,1018.98,31.86,1.50,1.90,0.06,1.00,0.88,,,
2021-07-24 14:00,17.0,,,2995,1018.86,183.20,1.30,1.73,0.10,1.00,0.77,,,
2021-07-24 15:00,17.5,,,2995,1018.98,226.20,2.35,2.72,1.05,1.00,1.83,,,
2021-07-24 16:00,18.6,,,2995,1019.23,282.10,1.29,1.72,0.03,1.00,0.71,,,
2021-07-24 17:00,19.0,,,2995,1019.35,274.20,1.43,1.87,0.28,1.00,0.95,,,
2021-07-24 18:00,19.3,,,2995,1019.11,275.00,3.18,3.46,1.30,1.00,2.44,,,
2021-07-24 19:00,19.1,,,2995,1019.11,282.00,2.78,3.04,1.13,1.00,2.14,,,
2021-07-24 20:00,19.1,,,2995,1018.62,269.20,3.26,3.52,1.03,1.00,2.20,,,
2021-07-24 21:00,19.4,,,2995,1018.37,282.70,2.39,2.74,0.52,1.00,1.58,,,
2021-07-24 22:00,20.0,,,2995,1018.25,319.40,1.34,1.75,0.04,1.00,0.79,,,
2021-07-24 23:00,19.6,,,2995,1018.37,13.31,0.84,1.21,0.03,1.00,0.48,,,
2021-07-25 00:00,18.4,,,2995,1018.37,118.60,0.81,1.57,0.03,1.00,0.37,,,
2021-07-25 01:00,18.5,,,2995,1018.98,220.70,1.52,1.80,0.01,1.00,0.87,,,
2021-07-25 02:00,18.5,,,2995,1018.98,173.80,1.73,2.09,0.59,1.00,1.29,,,
2021-07-25 03:00,18.0,,,2995,1018.74,151.40,2.72,2.91,1.33,1.00,2.13,,,
2021-07-25 04:00,17.8,,,2995,1018.25,154.10,2.11,2.30,0.76,1.00,1.59,,,
2021-07-25 05:00,17.4,,,2995,1018.25,181.40,1.47,1.89,0.45,1.00,1.10,,,
2021-07-25 06:00,18.0,,,2995,1018.00,239.50,4.44,4.72,1.74,1.00,3.12,,,
2021-07-25 07:00,17.6,,,2995,1017.63,218.00,2.28,2.55,0.70,1.00,1.62,,,
2021-07-25 08:00,17.6,,,2995,1017.51,191.10,2.85,3.06,0.76,1.00,1.89,,,
2021-07-25 09:00,17.6,,,2995,1017.88,232.60,4.02,4.37,2.32,1.00,3.43,,,
2021-07-25 10:00,18.2,,,2995,1018.12,249.60,4.62,4.98,2.79,1.00,3.91,,,
2021-07-25 11:00,19.1,,,2995,1018.12,268.30,2.42,3.05,0.85,1.00,1.92,,,
2021-07-25 12:00,17.9,,,2995,1017.88,189.80,2.49,3.00,0.91,1.00,1.96,,,
2021-07-25 13:00,17.6,,,2995,1017.88,184.90,3.17,3.37,1.60,1.00,2.49,,,
2021-07-25 14:00,17.6,,,2995,1017.51,180.30,3.77,4.09,1.87,1.00,3.08,,,
2021-07-25 15:00,17.9,,,2995,1017.39,189.90,4.84,5.19,2.54,1.00,3.96,,,
2021-07-25 16:00,17.8,,,2995,1017.02,197.80,5.05,5.43,2.37,1.00,4.20,,,
2021-07-25 17:00,18.0,,,2995,1016.90,196.70,4.82,5.45,2.42,1.00,4.18,,,
2021-07-25 18:00,18.5,,,2995,1016.90,199.60,4.66,5.09,3.06,1.00,4.03,,,
2021-07-25 19:00,18.7,,,2995,1016.28,183.70,5.46,6.25,3.17,1.00,4.68,,,
2021-07-25 20:00,18.9,,,2995,1016.04,167.20,5.56,6.01,1.83,1.00,4.11,,,
2021-07-25 21:00,19.0,,,2995,1015.30,169.00,4.88,5.27,1.51,1.00,3.34,,,
2021-07-25 22:00,19.0,,,2995,1015.30,181.80,4.19,4.66,1.19,1.00,2.57,,,
2021-07-25 23:00,19.2,,,2995,1015.30,183.20,3.01,3.98,1.12,1.00,2.42,,,
2021-07-26 00:00,18.8,,,2995,1015.30,199.20,5.88,6.86,2.53,1.00,4.79,,,
2021-07-26 01:00,18.7,,,2995,1015.42,194.40,3.76,4.46,1.86,1.00,3.15,,,
2021-07-26 02:00,18.8,,,2995,1015.30,174.30,3.84,4.24,1.86,1.00,3.10,,,
2021-07-26 03:00,18.6,,,2995,1014.93,190.70,4.04,4.52,1.77,1.00,3.13,,,
2021-07-26 04:00,18.5,,,2995,1014.44,180.10,5.29,5.92,2.99,1.00,4.44,,,
2021-07-26 05:00,18.5,,,2995,1013.22,171.10,7.80,8.52,4.34,1.00,6.79,,,
2021-07-26 06:00,18.9,,,2995,1012.73,183.80,10.43,11.77,5.48,1.00,8.80,,,
2021-07-26 07:00,19.1,,,2995,1012.36,196.50,10.53,11.52,4.79,1.00,8.46,,,
2021-07-26 08:00,19.5,,,2995,1011.62,197.90,10.98,11.57,6.30,1.00,8.93,,,
2021-07-26 09:00,19.8,,,2995,1011.50,203.30,10.43,11.32,5.83,1.00,8.71,,,
2021-07-26 10:00,19.2,,,2995,1011.25,206.70,9.75,10.54,4.84,1.00,8.08,,,
2021-07-26 11:00,19.0,,,2995,1011.50,222.40,7.37,8.38,3.81,1.00,6.17,,,
2021-07-26 12:00,19.1,,,2995,1011.38,243.90,7.90,8.89,4.29,1.00,6.63,,,
2021-07-26 13:00,18.4,,,2973,1011.38,235.60,6.27,6.78,1.82,1.00,4.34,,,
2021-07-26 14:00,18.4,,,2995,1011.62,219.50,4.57,5.52,1.61,1.00,3.79,,,
2021-07-26 15:00,18.1,,, 705,1011.50,203.20,4.98,5.60,1.55,1.00,3.32,,,
2021-07-26 16:00,18.1,,, 527,1011.38,206.40,4.05,5.17,1.62,1.00,3.41,,,
2021-07-26 17:00,18.1,3.5,4.4, 964,1011.01,,,,,0.96,,179.00,4.90,2.16
2021-07-26 18:00,18.2,,, 430,1011.13,192.30,4.64,5.82,1.73,1.00,3.89,,,
2021-07-26 19:00,18.4,,,1699,1010.89,197.90,4.65,5.51,1.85,1.00,3.85,,,
2021-07-26 20:00,18.3,,, 709,1010.76,218.00,4.52,5.58,1.48,1.00,3.22,,,
2021-07-26 21:00,18.2,,,2995,1010.89,217.10,5.48,6.53,2.22,1.00,3.92,,,
2021-07-26 22:00,18.0,,,2995,1010.76,233.30,5.25,6.02,1.56,1.00,3.64,,,
2021-07-26 23:00,18.0,,, 995,1010.89,239.50,3.88,4.80,1.11,1.00,2.79,,,
2021-07-27 00:00,18.0,,,1475,1011.38,233.70,4.28,5.39,1.39,1.00,3.44,,,
2021-07-27 01:00,18.1,,, 406,1011.87,235.50,4.17,5.15,1.02,1.00,2.85,,,
2021-07-27 02:00,17.7,,, 655,1011.62,230.00,4.80,5.81,1.74,1.00,3.69,,,
2021-07-27 03:00,17.5,,,1132,1011.99,209.90,6.78,7.33,3.23,1.00,5.34,,,
2021-07-27 04:00,17.8,,, 469,1011.74,229.60,7.80,8.50,3.66,1.00,5.93,,,
2021-07-27 05:00,18.1,,,1686,1011.50,241.20,7.37,8.49,2.28,1.00,5.58,,,
2021-07-27 06:00,18.1,,,1456,1010.76,244.60,7.78,8.52,3.01,1.00,5.96,,,
2021-07-27 07:00,17.7,,,2985,1010.27,253.90,5.66,6.77,2.80,1.00,4.67,,,
2021-07-27 08:00,17.2,,,1088,1010.52,262.30,9.03,9.37,4.04,1.00,7.16,,,
2021-07-27 09:00,17.2,,, 960,1011.01,279.00,7.68,8.67,3.44,1.00,6.17,,,
2021-07-27 10:00,17.2,,, 550,1011.62,279.90,5.84,6.73,2.67,1.00,4.86,,,
2021-07-27 11:00,17.4,,, 803,1011.99,239.70,2.38,3.45,0.17,1.00,1.77,,,
2021-07-27 12:00,17.3,,,1368,1011.99,230.30,3.79,5.10,0.03,1.00,2.49,,,
2021-07-27 13:00,17.1,,,1359,1012.36,246.00,3.39,4.52,0.43,1.00,2.34,,,
2021-07-27 14:00,17.4,,, 255,1011.99,230.80,2.93,3.85,0.39,1.00,1.99,,,
2021-07-27 15:00,17.2,,, 294,1011.62,216.90,4.07,5.28,0.97,1.00,2.97,,,
2021-07-27 16:00,17.2,,,1562,1011.99,228.00,4.55,5.74,1.54,1.00,3.70,,,
2021-07-27 17:00,17.9,,,2995,1012.24,215.60,3.82,4.76,1.29,1.00,3.05,,,
2021-07-27 18:00,18.5,,,2995,1011.87,220.70,4.83,5.91,1.93,1.00,4.08,,,
2021-07-27 19:00,18.9,,,2995,1011.99,231.80,5.81,6.79,2.71,1.00,4.81,,,
2021-07-27 20:00,19.2,,,2995,1011.99,241.10,5.66,6.18,2.60,1.00,4.60,,,
2021-07-27 21:00,19.3,,,2987,1012.11,231.20,4.73,5.36,2.58,1.00,4.04,,,
2021-07-27 22:00,19.1,,,2828,1012.36,228.90,4.39,5.04,2.57,1.00,3.79,,,
2021-07-27 23:00,18.6,,,2265,1012.48,259.10,3.37,3.96,1.97,1.00,2.94,,,
2021-07-28 00:00,17.9,,,2995,1012.85,251.00,2.55,3.49,0.82,1.00,2.15,,,
2021-07-28 01:00,17.6,,,2995,1013.22,256.50,2.38,3.27,0.36,1.00,2.04,,,
2021-07-28 02:00,17.8,,,2995,1013.22,230.30,2.23,3.04,0.42,1.00,1.77,,,
2021-07-28 03:00,17.7,,,2995,1013.09,213.80,2.11,3.14,0.13,1.00,1.59,,,
2021-07-28 04:00,17.4,,,2995,1013.09,194.70,2.93,3.66,0.49,1.00,2.22,,,
2021-07-28 05:00,17.4,,,2995,1012.73,227.20,3.04,3.67,1.13,1.00,2.53,,,
2021-07-28 06:00,17.7,,,2995,1012.73,238.30,3.55,4.27,1.30,1.00,2.94,,,
2021-07-28 07:00,17.1,,,2130,1012.24,217.40,3.19,4.01,0.78,1.00,2.58,,,
2021-07-28 08:00,16.8,,,2805,1011.99,173.00,1.82,2.69,0.24,1.00,1.26,,,
2021-07-28 09:00,17.1,,,2995,1012.36,244.00,3.00,3.52,0.86,1.00,2.49,,,
2021-07-28 10:00,17.9,,,2995,1012.60,265.70,3.19,3.50,1.22,1.00,2.39,,,
2021-07-28 11:00,17.5,,,2995,1012.73,253.60,3.44,4.09,1.85,1.00,2.83,,,
2021-07-28 12:00,17.0,,,2995,1012.73,318.30,1.78,2.32,0.39,1.00,1.30,,,
2021-07-28 13:00,16.7,,,2995,1013.09,347.95,5.03,5.89,2.27,1.00,4.03,,,
2021-07-28 14:00,17.2,,,2995,1013.09,12.50,3.76,4.59,1.49,1.00,3.03,,,
2021-07-28 15:00,16.6,,,2995,1013.09,0.97,6.41,7.82,3.36,1.00,5.54,,,
2021-07-28 16:00,16.4,,,2995,1012.97,11.68,5.53,6.47,2.94,1.00,4.75,,,
2021-07-28 17:00,16.3,,,2995,1013.22,8.26,5.00,5.62,1.36,1.00,4.07,,,
2021-07-28 18:00,16.8,,,2995,1013.22,359.44,4.76,5.69,1.56,1.00,3.46,,,
2021-07-28 19:00,16.7,,,2995,1013.09,354.22,5.28,6.14,2.52,1.00,4.40,,,
2021-07-28 20:00,16.5,,,2995,1013.46,339.20,6.76,7.65,2.97,1.00,5.52,,,
2021-07-28 21:00,16.9,,,2995,1013.34,335.20,7.70,8.71,3.62,1.00,6.63,,,
2021-07-28 22:00,16.9,,,2995,1013.58,343.22,7.06,8.63,3.36,1.00,5.82,,,
2021-07-28 23:00,16.8,,,2995,1013.95,336.10,6.29,7.33,3.05,1.00,5.27,,,
2021-07-29 00:00,16.4,,,2995,1014.32,323.50,6.19,7.20,2.63,1.00,5.12,,,
2021-07-29 01:00,16.5,,,2995,1014.69,323.20,7.59,9.33,3.40,1.00,6.45,,,
2021-07-29 02:00,16.6,,,2995,1014.93,316.40,7.37,8.54,4.35,1.00,6.33,,,
2021-07-29 03:00,16.9,,,2995,1014.93,321.10,8.08,9.13,3.47,1.00,6.39,,,
2021-07-29 04:00,16.8,,,2995,1015.06,327.00,6.10,6.92,2.20,1.00,4.49,,,
2021-07-29 05:00,16.8,,,2995,1014.69,326.30,4.95,5.87,1.68,1.00,3.57,,,
2021-07-29 06:00,17.1,,,2995,1014.69,331.00,5.44,6.10,2.30,1.00,4.24,,,
2021-07-29 07:00,17.0,,,2995,1014.93,327.50,7.91,9.23,4.34,1.00,6.53,,,
2021-07-29 08:00,17.1,,,2995,1015.42,328.70,7.98,8.77,4.33,1.00,6.54,,,
2021-07-29 09:00,17.2,,,2995,1015.79,326.90,7.17,8.20,3.16,1.00,5.76,,,
2021-07-29 10:00,17.6,,,2995,1016.16,329.10,5.51,6.23,2.67,1.00,4.43,,,
2021-07-29 11:00,17.5,,,2995,1016.77,325.90,6.01,6.70,3.28,1.00,4.96,,,
2021-07-29 12:00,16.9,,,2995,1017.14,321.00,4.17,4.66,2.39,1.00,3.53,,,
2021-07-29 13:00,16.8,,,2995,1017.14,321.20,3.81,4.50,1.89,1.00,3.24,,,
2021-07-29 14:00,17.2,,,2995,1017.63,310.20,2.78,3.30,1.08,1.00,2.21,,,
2021-07-29 15:00,18.3,,,2995,1017.63,282.30,1.15,2.01,0.07,1.00,0.64,,,
2021-07-29 16:00,20.0,,,2995,1017.14,244.70,1.05,1.66,0.02,1.00,0.50,,,
2021-07-29 17:00,18.9,,,2995,1017.39,198.00,2.16,2.49,0.58,1.00,1.73,,,
2021-07-29 18:00,18.9,,,2995,1016.65,199.40,3.44,3.68,2.01,1.00,2.90,,,
2021-07-29 19:00,19.2,,,2995,1016.16,204.60,3.28,3.48,2.10,1.00,2.78,,,
2021-07-29 20:00,19.3,,,2995,1016.04,188.10,3.67,4.13,2.64,1.00,3.32,,,
2021-07-29 21:00,19.6,,,2995,1015.55,182.20,4.72,5.01,2.90,1.00,3.94,,,
2021-07-29 22:00,19.2,,,2995,1015.06,188.60,5.41,5.93,2.90,1.00,4.28,,,
2021-07-29 23:00,18.4,,,2995,1015.06,217.50,3.60,4.04,1.47,1.00,2.67,,,
2021-07-30 00:00,17.9,,,2995,1014.56,193.50,2.97,3.44,1.24,1.00,2.47,,,
2021-07-30 01:00,18.2,,,2995,1014.69,173.30,4.16,4.96,1.63,1.00,3.31,,,
2021-07-30 02:00,18.1,,,2995,1013.95,148.50,3.23,4.14,1.07,1.00,2.41,,,
2021-07-30 03:00,18.5,,,2995,1013.46,147.00,4.10,4.86,1.51,1.00,3.40,,,
2021-07-30 04:00,18.3,,,2995,1012.60,137.20,5.41,6.26,2.34,1.00,4.75,,,
2021-07-30 05:00,18.5,,,2995,1011.25,143.60,5.80,6.70,2.99,1.00,5.07,,,
2021-07-30 06:00,19.0,,,2995,1010.03,142.40,6.24,7.66,3.31,1.00,5.36,,,
2021-07-30 07:00,19.3,,,2995,1008.56,140.60,7.11,7.79,3.64,1.00,5.92,,,
2021-07-30 08:00,,,,,,,,,,,,,,
2021-07-30 09:00,19.2,,,2995,1005.74,162.60,7.80,8.63,4.30,1.00,6.51,,,
2021-07-30 10:00,,,,,,,,,,,,,,
2021-07-30 11:00,18.9,,,2995,1003.42,159.50,9.12,10.29,5.00,1.00,7.52,,,
2021-07-30 12:00,19.2,,,2995,1002.32,179.10,10.76,12.45,4.11,1.00,7.75,,,
2021-07-30 13:00,19.2,,,2995,1002.20,182.50,10.82,12.82,4.31,1.00,8.47,,,
2021-07-30 14:00,19.2,,,2995,1002.08,177.60,9.97,11.31,3.68,1.00,7.52,,,
2021-07-30 15:00,19.1,,,2995,1001.59,195.60,11.62,13.00,4.72,1.00,9.25,,,
2021-07-30 16:00,18.7,,,2995,1000.85,231.50,11.17,12.22,4.84,1.00,9.00,,,
2021-07-30 17:00,18.4,,,2995,1001.22,251.70,11.65,13.77,3.77,1.00,8.67,,,
2021-07-30 18:00,18.5,,,2995,1001.46,251.10,10.07,10.93,2.79,1.00,7.43,,,
2021-07-30 19:00,18.3,,,2995,1002.08,262.20,9.72,11.73,3.34,1.00,7.63,,,
2021-07-30 20:00,17.5,,,2995,1003.18,293.90,9.90,11.25,3.19,1.00,7.87,,,
2021-07-30 21:00,17.0,,,2995,1003.54,296.60,8.94,9.78,2.78,1.00,6.54,,,
2021-07-30 22:00,17.0,,,2995,1004.28,288.40,7.61,9.36,2.15,1.00,5.77,,,
2021-07-30 23:00,16.9,,,2995,1004.52,281.00,7.39,8.33,2.49,1.00,4.95,,,
2021-07-31 00:00,17.0,,,2995,1004.77,272.00,6.52,7.48,2.45,1.00,4.76,,,
2021-07-31 01:00,17.3,,,2995,1005.38,266.50,8.14,9.33,2.85,1.00,5.95,,,
2021-07-31 02:00,17.6,,,2995,1005.99,255.60,7.79,9.11,2.71,1.00,6.12,,,
2021-07-31 03:00,17.7,,,2995,1006.48,246.30,9.08,10.69,2.81,1.00,6.91,,,
2021-07-31 04:00,18.0,,,2995,1006.72,266.90,10.09,11.23,3.55,1.00,7.56,,,
2021-07-31 05:00,17.9,,,2995,1006.85,265.90,8.54,10.42,4.04,1.00,7.01,,,
2021-07-31 06:00,18.1,,,2995,1006.97,272.90,10.00,11.04,4.42,1.00,7.72,,,
2021-07-31 07:00,17.4,,,2995,1007.34,296.50,10.28,11.52,4.65,1.00,8.29,,,
2021-07-31 08:00,17.1,,,2995,1007.58,303.40,10.97,12.05,3.53,1.00,8.16,,,
2021-07-31 09:00,16.9,,,2995,1008.31,302.50,10.61,11.55,3.66,1.00,7.99,,,
2021-07-31 10:00,16.8,,,2995,1009.17,294.80,8.49,9.65,3.95,1.00,6.85,,,
2021-07-31 11:00,16.9,,,2995,1010.03,286.50,8.91,9.90,4.34,1.00,7.25,,,
2021-07-31 12:00,16.8,,,2995,1010.52,279.10,9.02,10.12,5.34,1.00,7.66,,,
2021-07-31 13:00,16.4,,,2995,1010.89,282.50,10.32,11.55,6.01,1.00,8.72,,,
2021-07-31 14:00,16.4,,,2995,1011.38,277.30,9.69,10.84,4.67,1.00,8.01,,,
2021-07-31 15:00,16.4,,,2995,1011.74,280.60,8.48,9.92,3.94,1.00,6.71,,,
2021-07-31 17:00,17.1,,,2995,1011.87,252.10,7.78,9.42,3.07,1.00,6.02,,,
2021-07-31 18:00,17.4,,,2995,1011.62,247.90,8.56,9.49,3.93,1.00,6.82,,,
2021-07-31 19:00,17.4,,,2995,1012.11,243.20,9.90,11.19,4.81,1.00,8.25,,,
2021-07-31 20:00,17.5,,,2995,1012.24,247.90,10.39,11.44,5.37,1.00,8.65,,,
2021-07-31 21:00,17.7,,,2995,1012.36,262.20,9.40,10.48,2.76,1.00,7.07,,,
2021-07-31 22:00,17.6,,,2968,1012.73,261.80,10.31,11.57,3.83,1.00,8.47,,,
2021-07-31 23:00,17.5,,,2995,1012.85,264.20,9.50,10.32,3.97,1.00,7.96,,,
2021-08-01 00:00,17.3,,,2995,1012.97,269.40,8.64,9.72,3.36,1.00,6.76,,,
2021-08-01 01:00,17.3,,,2995,1013.71,266.10,6.37,7.25,2.24,1.00,4.78,,,
2021-08-01 02:00,17.1,,,2995,1013.95,255.50,5.66,6.31,1.69,1.00,4.00,,,
2021-08-01 03:00,17.1,,,2995,1013.83,254.10,5.14,5.87,1.40,1.00,3.64,,,
2021-08-01 04:00,17.1,,,2995,1013.95,233.50,4.57,6.29,1.44,1.00,3.61,,,
2021-08-01 05:00,16.8,,,2995,1013.71,220.70,6.30,7.42,2.39,1.00,4.87,,,
2021-08-01 06:00,16.7,,,2995,1013.83,211.70,7.43,8.57,3.96,1.00,6.13,,,
2021-08-01 07:00,16.9,,,2995,1013.83,216.40,7.91,9.08,3.88,1.00,6.67,,,
2021-08-01 08:00,16.8,,,2995,1013.71,220.40,7.42,8.85,4.15,1.00,6.50,,,
2021-08-01 09:00,17.0,,,2995,1013.83,222.20,6.87,7.63,2.40,1.00,5.05,,,
2021-08-01 10:00,17.1,,,2829,1014.20,224.70,6.42,7.49,2.03,1.00,5.02,,,
2021-08-01 11:00,17.2,,,2995,1014.81,235.40,6.12,7.03,3.06,1.00,5.20,,,
2021-08-01 12:00,17.4,,,2979,1015.06,238.60,5.12,5.96,1.68,1.00,4.23,,,
2021-08-01 13:00,17.5,,,2995,1015.06,235.70,4.14,4.86,1.49,1.00,3.00,,,
2021-08-01 14:00,17.7,,,2995,1015.06,222.10,4.00,5.03,1.71,1.00,3.30,,,
2021-08-01 15:00,17.9,,,2995,1014.93,212.30,4.29,5.29,1.89,1.00,3.48,,,
2021-08-01 16:00,17.9,,,2995,1015.18,197.10,3.94,4.76,1.45,1.00,3.16,,,
2021-08-01 17:00,18.1,,,2995,1014.81,198.60,4.11,5.04,1.74,1.00,3.19,,,
2021-08-01 18:00,18.1,,,2995,1014.93,204.80,4.49,5.43,1.83,1.00,3.62,,,
2021-08-01 19:00,18.1,,,2995,1014.81,209.40,3.77,4.45,1.42,1.00,2.81,,,
2021-08-01 20:00,18.5,,,2995,1014.81,194.10,3.92,4.43,1.73,1.00,3.33,,,
2021-08-01 21:00,18.3,,,2995,1014.56,187.10,3.02,3.85,1.02,1.00,2.46,,,
2021-08-01 22:00,18.1,,,2995,1014.20,173.30,2.83,3.64,1.08,1.00,2.38,,,
2021-08-01 23:00,18.1,,,2995,1014.07,150.10,2.25,2.74,0.17,1.00,1.52,,,
2021-08-02 00:00,17.9,,,2995,1013.83,110.40,1.89,2.43,0.42,1.00,1.47,,,
2021-08-02 01:00,18.0,,,2995,1014.32,85.40,2.41,2.98,0.98,1.00,1.96,,,
2021-08-02 02:00,18.2,,,2995,1014.32,91.20,4.54,4.95,2.20,1.00,3.73,,,
2021-08-02 03:00,18.3,,,2995,1013.46,80.00,5.45,6.48,2.82,1.00,4.51,,,
2021-08-02 04:00,18.2,,,2995,1012.60,93.80,6.26,7.16,3.33,1.00,5.33,,,
2021-08-02 05:00,18.0,,,2995,1011.87,93.70,6.48,7.24,3.08,1.00,5.26,,,
2021-08-02 06:00,17.9,,,2995,1011.01,88.40,6.32,7.03,3.83,1.00,5.36,,,
2021-08-02 07:00,17.6,,,2995,1010.03,83.50,6.76,7.72,3.82,1.00,5.96,,,
2021-08-02 08:00,18.2,,,2995,1009.05,88.60,7.29,8.66,4.22,1.00,6.45,,,
2021-08-02 09:00,18.1,,,2995,1008.07,97.50,10.30,11.37,5.85,1.00,8.84,,,
2021-08-02 10:00,18.7,,,2995,1007.46,99.90,9.07,9.74,3.46,1.00,6.46,,,
2021-08-02 11:00,18.9,,,2995,1007.09,100.60,7.51,8.63,2.60,1.00,5.55,,,
2021-08-02 12:00,18.4,,,2995,1006.36,104.70,5.51,6.06,1.76,1.00,3.75,,,
2021-08-02 13:00,18.8,,,2995,1005.99,113.50,2.96,4.16,0.65,1.00,2.19,,,
2021-08-02 14:00,19.1,,,2995,1005.99,207.90,5.19,6.14,2.18,1.00,4.28,,,
2021-08-02 15:00,18.7,,,2995,1006.11,259.90,10.19,11.68,4.66,1.00,8.31,,,
2021-08-02 16:00,17.0,,,2995,1006.48,310.80,9.66,11.04,4.35,1.00,7.83,,,
2021-08-02 17:00,15.9,,,2995,1007.34,330.40,9.61,11.30,3.24,1.00,6.61,,,
2021-08-02 18:00,15.9,,,2995,1008.31,340.60,7.57,8.49,2.41,1.00,5.68,,,
2021-08-02 19:00,16.3,,,2995,1009.66,283.40,7.70,8.22,2.30,1.00,5.46,,,
2021-08-02 20:00,16.8,,,2995,1010.40,284.20,7.15,7.84,2.07,1.00,4.64,,,
2021-08-02 21:00,16.8,,,2995,1011.25,279.50,7.95,8.98,2.96,1.00,6.03,,,
2021-08-02 22:00,17.0,,,2995,1011.99,265.10,6.41,7.41,2.06,1.00,4.74,,,
2021-08-02 23:00,17.8,,,2995,1012.85,254.70,5.30,6.21,1.88,1.00,4.08,,,
2021-08-03 00:00,17.7,,,2995,1013.46,228.70,4.85,6.02,1.52,1.00,3.88,,,
2021-08-03 01:00,18.0,,,2995,1014.32,241.30,6.65,7.99,2.09,1.00,4.89,,,
2021-08-03 02:00,18.0,,,2995,1014.69,278.80,7.56,8.78,3.86,1.00,6.40,,,
2021-08-03 03:00,18.0,,,2995,1015.42,288.90,8.65,9.74,4.23,1.00,7.14,,,
2021-08-03 04:00,17.7,,,2995,1016.41,295.00,7.88,9.62,2.59,1.00,6.12,,,
2021-08-03 05:00,17.5,,,2995,1017.14,292.40,6.55,8.25,1.97,1.00,5.00,,,
2021-08-03 06:00,17.5,,,2995,1017.63,284.60,6.43,7.70,2.41,1.00,5.20,,,
2021-08-03 07:00,17.6,,,2995,1017.88,288.30,5.28,6.51,2.05,1.00,4.10,,,
2021-08-03 08:00,17.5,,,2995,1018.37,291.40,3.92,5.02,0.81,1.00,2.89,,,
2021-08-03 09:00,17.5,,,2995,1018.86,243.50,2.47,3.34,0.26,1.00,1.81,,,
2021-08-03 10:00,17.6,,,2995,1019.60,198.30,3.33,4.15,0.92,1.00,2.71,,,
2021-08-03 11:00,18.0,,,2995,1019.97,211.00,3.09,4.01,0.69,1.00,2.32,,,
2021-08-03 12:00,17.9,,,2985,1020.09,190.30,3.92,4.75,1.14,1.00,2.84,,,
2021-08-03 13:00,18.1,,,2995,1020.58,187.10,3.67,4.80,1.26,1.00,2.96,,,
2021-08-03 14:00,18.2,,,2995,1020.83,191.40,4.48,5.62,1.33,1.00,3.52,,,